GW1009 Weather Reports


time (UTC)temp
F
wind
direction
speed
knots
gust
knots
rain 1hr
in
rain 24hr
in
rain mn
in
humidity
%
barometer
mb
20260903113030 66 219 0.9 5.2 0.00 0.37 0.00 90 1011.9
20260903112527 66 215 0.9 8.7 0.00 0.37 0.00 90 1011.9
20260903112032 66 200 2.6 8.7 0.00 0.37 0.00 90 1011.9
20260903111535 66 175 1.7 8.7 0.00 0.37 0.00 89 1012.0
20260903111026 66 198 3.5 7.8 0.00 0.37 0.00 89 1012.0
20260903110526 66 194 1.7 8.7 0.00 0.37 0.00 89 1012.0
20260903110025 66 215 4.3 9.6 0.00 0.37 0.00 89 1011.9
20260903105525 66 216 3.5 13.9 0.00 0.37 0.00 89 1011.9
20260903105025 66 249 2.6 13.9 0.00 0.37 0.00 89 1011.9
20260903104525 66 208 3.5 8.7 0.00 0.37 0.00 89 1011.9
20260903104025 66 201 2.6 8.7 0.00 0.37 0.00 88 1012.0
20260903103524 66 207 2.6 7.8 0.00 0.37 0.00 88 1012.0
20260903103027 66 209 2.6 9.6 0.00 0.37 0.00 88 1012.1
20260903102524 66 223 2.6 9.6 0.00 0.37 0.00 88 1012.0
20260903102022 66 205 1.7 5.2 0.00 0.37 0.00 88 1012.1
20260903101535 66 160 0.9 7.8 0.00 0.37 0.00 88 1011.9
20260903101022 66 288 1.7 7.8 0.00 0.37 0.00 88 1011.9
20260903100522 66 236 0.0 7.0 0.00 0.37 0.00 88 1011.8
20260903100021 66 188 1.7 7.0 0.00 0.37 0.00 89 1011.8
20260903095521 66 225 1.7 8.7 0.00 0.37 0.00 89 1011.8
20260903095120 66 207 2.6 8.7 0.00 0.37 0.00 89 1011.8
20260903094519 66 208 1.7 6.1 0.00 0.37 0.00 90 1011.7
20260903094017 66 250 0.9 5.2 0.00 0.37 0.00 90 1011.7
20260903093516 66 40 1.7 5.2 0.00 0.37 0.00 90 1011.7
20260903093015 66 174 1.7 5.2 0.00 0.37 0.00 90 1011.6
20260903092517 65 175 0.9 5.2 0.00 0.37 0.00 90 1011.7
20260903092014 65 192 0.0 5.2 0.00 0.37 0.00 90 1011.6
20260903091515 65 149 0.9 6.1 0.00 0.37 0.00 90 1011.7
20260903091012 65 206 0.9 6.1 0.00 0.37 0.00 90 1011.6
20260903090512 66 192 2.6 6.1 0.00 0.37 0.00 90 1011.5
20260903090011 66 213 1.7 6.1 0.00 0.37 0.00 90 1011.6
20260903085508 66 46 0.0 4.3 0.00 0.37 0.00 90 1011.7
20260903085007 66 228 0.9 7.0 0.00 0.37 0.00 90 1011.7
20260903084506 66 258 0.0 7.0 0.00 0.37 0.00 91 1011.7
20260903084005 66 210 0.9 7.0 0.00 0.37 0.00 91 1011.7
20260903083504 66 209 2.6 7.0 0.00 0.37 0.00 91 1011.7
20260903083002 66 211 1.7 6.1 0.00 0.37 0.00 91 1011.7
20260903082500 66 247 2.6 6.1 0.00 0.37 0.00 91 1011.8
20260903082100 66 207 3.5 7.0 0.00 0.37 0.00 91 1011.8
20260903081600 66 238 3.5 9.6 0.00 0.37 0.00 91 1011.8
20260903081100 66 247 2.6 9.6 0.00 0.37 0.00 91 1011.8
20260903080553 65 155 1.7 6.1 0.00 0.37 0.00 91 1011.8
20260903080054 65 222 1.7 5.2 0.00 0.37 0.00 91 1011.9
20260903075558 65 197 1.7 5.2 0.00 0.37 0.00 92 1011.9
20260903075053 65 188 1.7 5.2 0.00 0.37 0.00 92 1011.9
20260903074553 65 308 1.7 6.1 0.00 0.37 0.00 92 1011.9
20260903074054 65 258 1.7 6.1 0.00 0.37 0.00 92 1011.9
20260903073553 65 196 0.9 4.3 0.00 0.37 0.00 92 1012.0
20260903073055 65 190 0.9 4.3 0.00 0.37 0.00 92 1012.0
20260903072552 65 36 0.9 4.3 0.00 0.37 0.00 92 1012.0
20260903072052 65 224 0.9 4.3 0.00 0.37 0.00 92 1012.0
20260903071552 65 317 0.0 6.1 0.00 0.37 0.00 92 1012.0
20260903071051 65 231 1.7 7.0 0.00 0.37 0.00 92 1012.0
20260903070550 65 193 0.0 7.0 0.00 0.37 0.00 91 1012.1
20260903070055 65 219 0.9 6.1 0.00 0.37 0.00 91 1012.0
20260903065551 65 194 1.7 6.1 0.00 0.37 0.00 92 1012.1
20260903065050 65 234 0.9 7.0 0.00 0.37 0.00 91 1012.1
20260903064550 65 187 0.9 7.8 0.00 0.37 0.00 92 1012.1
20260903064051 65 161 2.6 7.8 0.00 0.37 0.00 92 1012.0
20260903063549 65 213 1.7 7.8 0.00 0.37 0.00 92 1012.0
20260903063112 65 221 2.6 8.7 0.00 0.37 0.00 92 1012.0
20260903062546 65 207 4.3 8.7 0.00 0.37 0.00 92 1011.8
20260903062046 65 156 2.6 6.1 0.00 0.37 0.00 92 1011.9
20260903061546 65 206 0.9 6.1 0.00 0.37 0.00 92 1011.9
20260903061045 65 192 1.7 6.1 0.00 0.37 0.00 92 1011.9
20260903060545 65 227 1.7 6.1 0.00 0.37 0.00 92 1012.0
20260903060045 65 200 2.6 8.7 0.00 0.37 0.00 92 1011.9
20260903055545 65 10 1.7 10.4 0.00 0.37 0.00 92 1011.9
20260903055044 65 215 1.7 9.6 0.00 0.37 0.00 91 1011.8
20260903054545 65 142 0.9 7.0 0.00 0.37 0.00 92 1011.7
20260903054044 65 192 0.9 8.7 0.00 0.37 0.00 91 1011.7
20260903053546 65 209 2.6 12.2 0.00 0.37 0.00 92 1011.7
20260903053043 65 186 5.2 12.2 0.00 0.37 0.00 92 1011.8
20260903052543 65 200 3.5 11.3 0.00 0.37 0.00 92 1011.7
20260903052043 65 204 2.6 13.0 0.00 0.37 0.00 91 1011.6
20260903051545 65 202 3.5 13.0 0.00 0.37 0.00 91 1011.6
20260903051041 65 183 5.2 10.4 0.00 0.37 0.00 91 1011.5
20260903050540 65 198 3.5 12.2 0.00 0.37 0.00 91 1011.7
20260903050100 65 236 4.3 13.0 0.00 0.37 0.00 91 1011.9
20260903045540 65 252 4.3 11.3 0.00 0.37 0.00 91 1012.0
20260903045039 65 159 4.3 11.3 0.00 0.37 0.00 91 1012.1
20260903044539 65 192 5.2 12.2 0.00 0.37 0.00 92 1012.2
20260903044038 65 190 4.3 12.2 0.00 0.37 0.00 92 1012.2
20260903043539 64 218 3.5 12.2 0.00 0.37 0.00 92 1012.4
20260903043037 64 209 3.5 12.2 0.00 0.37 0.00 92 1012.4
20260903042537 64 203 4.3 12.2 0.01 0.37 0.00 92 1012.5
20260903042036 64 238 5.2 13.0 0.01 0.37 0.00 92 1012.7
20260903041535 64 234 5.2 13.0 0.01 0.37 0.00 92 1012.6
20260903041033 64 207 4.3 13.0 0.02 0.37 0.00 92 1012.5
20260903040532 64 194 0.9 7.8 0.02 0.37 0.00 91 1012.1
20260903040032 64 156 3.5 7.8 0.04 0.37 0.00 91 1011.8
20260903035530 64 150 1.7 10.4 0.04 0.37 0.37 91 1011.8
20260903035030 64 186 5.2 13.0 0.06 0.37 0.37 91 1011.8
20260903034531 64 196 3.5 13.0 0.06 0.37 0.37 91 1011.9
20260903034029 64 220 7.0 13.0 0.07 0.37 0.37 91 1012.2
20260903033533 65 187 4.3 16.5 0.08 0.37 0.37 91 1012.4
20260903033030 65 198 7.8 16.5 0.08 0.37 0.37 91 1012.4
20260903032528 65 208 5.2 8.7 0.08 0.36 0.36 91 1012.5
20260903032027 65 192 2.6 8.7 0.08 0.36 0.36 91 1012.9
20260903031528 65 150 3.5 14.8 0.09 0.36 0.36 91 1012.7
20260903031028 65 179 8.7 14.8 0.09 0.35 0.35 91 1012.2
20260903030527 65 183 7.0 20.0 0.09 0.34 0.34 91 1012.2
20260903030029 65 142 7.8 20.0 0.08 0.33 0.33 91 1012.2
20260903025526 65 175 2.6 14.8 0.09 0.33 0.33 91 1012.8
20260903025026 65 122 3.5 14.8 0.07 0.31 0.31 91 1012.7
20260903024526 65 149 6.1 13.9 0.08 0.31 0.31 91 1012.9
20260903024025 65 196 5.2 13.0 0.08 0.30 0.30 91 1013.1
20260903023525 65 213 6.1 13.9 0.07 0.28 0.28 91 1013.0
20260903023027 65 186 6.1 13.9 0.08 0.28 0.28 91 1013.1
20260903022526 65 192 3.5 7.8 0.07 0.28 0.28 91 1013.1
20260903022025 65 136 4.3 8.7 0.07 0.28 0.28 91 1013.0
20260903021529 65 170 2.6 9.6 0.06 0.27 0.27 91 1013.1
20260903021025 65 191 1.7 8.7 0.05 0.26 0.26 91 1013.2
20260903020525 65 182 2.6 8.7 0.04 0.25 0.25 90 1013.4
20260903020024 65 192 3.5 8.7 0.04 0.25 0.25 90 1013.3
20260903015524 66 186 4.3 7.8 0.03 0.24 0.24 90 1013.4
20260903015023 66 174 2.6 9.6 0.03 0.24 0.24 89 1013.6
20260903014523 66 140 4.3 9.6 0.02 0.23 0.23 89 1013.7
20260903014023 66 173 3.5 8.7 0.01 0.22 0.22 88 1014.0
20260903013522 66 194 3.5 8.7 0.01 0.22 0.22 87 1014.2
20260903013022 66 161 3.5 8.7 0.00 0.21 0.21 87 1014.3
20260903012525 67 200 3.5 7.0 0.00 0.21 0.21 87 1014.5
20260903012025 67 207 3.5 7.0 0.00 0.21 0.21 87 1014.9
20260903011522 67 165 2.6 7.8 0.00 0.21 0.21 87 1014.5
20260903011024 67 175 2.6 9.6 0.00 0.21 0.21 87 1014.4
20260903010521 67 195 3.5 9.6 0.00 0.21 0.21 87 1014.0
20260903010028 67 205 5.2 9.6 0.00 0.21 0.21 87 1014.0
20260903005522 67 194 3.5 9.6 0.00 0.21 0.21 86 1014.1
20260903005020 67 146 3.5 8.7 0.00 0.21 0.21 87 1014.2
20260903004521 67 164 3.5 11.3 0.00 0.21 0.21 86 1014.1
20260903004023 67 197 5.2 11.3 0.00 0.21 0.21 86 1014.2
20260903003520 67 121 3.5 8.7 0.00 0.21 0.21 86 1013.9
20260903003021 67 154 2.6 9.6 0.00 0.21 0.21 86 1013.9
20260903002520 67 171 6.1 10.4 0.00 0.21 0.21 86 1013.9
20260903002020 67 221 2.6 8.7 0.00 0.21 0.21 86 1014.1
20260903001520 67 195 4.3 8.7 0.00 0.21 0.21 86 1014.1
20260903001018 67 72 2.6 7.0 0.00 0.21 0.21 86 1013.8
20260903000518 67 199 2.6 11.3 0.00 0.21 0.21 86 1013.6
20260903000020 67 205 4.3 13.0 0.00 0.21 0.21 86 1013.5
20260902235518 68 181 3.5 9.6 0.00 0.21 0.21 86 1013.4
20260902235017 68 175 2.6 8.7 0.00 0.21 0.21 86 1013.6
20260902234519 68 196 3.5 8.7 0.00 0.21 0.21 86 1013.7
20260902234018 68 130 4.3 11.3 0.00 0.21 0.21 85 1013.5
20260902233520 68 200 6.1 11.3 0.00 0.21 0.21 85 1013.5
20260902233018 68 121 5.2 11.3 0.00 0.21 0.21 85 1013.4
20260902232517 68 202 6.1 11.3 0.00 0.21 0.21 85 1013.3
20260902232120 68 215 5.2 15.6 0.00 0.21 0.21 85 1013.2
20260902231534 68 166 3.5 12.2 0.00 0.21 0.21 86 1012.7
20260902231018 68 170 4.3 12.2 0.00 0.21 0.21 86 1012.6
20260902230516 68 180 3.5 15.6 0.00 0.21 0.21 86 1012.7
20260902230027 68 161 7.8 15.6 0.00 0.21 0.21 85 1012.5
20260902225516 68 146 6.1 13.9 0.00 0.21 0.21 86 1012.6
20260902225017 68 118 6.1 13.0 0.00 0.21 0.21 86 1012.7
20260902224514 69 146 4.3 9.6 0.00 0.21 0.21 86 1013.3
20260902224016 69 129 3.5 7.0 0.00 0.21 0.21 86 1013.5
20260902223511 69 142 2.6 7.8 0.00 0.21 0.21 86 1013.7
20260902223011 69 142 2.6 7.8 0.00 0.21 0.21 86 1014.0
20260902222510 69 134 2.6 6.1 0.00 0.21 0.21 85 1014.2
20260902222011 70 136 0.9 5.2 0.00 0.21 0.21 85 1014.4
20260902221517 70 155 1.7 4.3 0.00 0.21 0.21 85 1014.3
20260902221009 70 157 0.0 5.2 0.00 0.21 0.21 85 1014.7
20260902220508 70 193 0.9 5.2 0.00 0.21 0.21 84 1014.6
20260902220009 70 169 1.7 6.1 0.00 0.21 0.21 84 1014.8
20260902215510 70 160 1.7 7.0 0.00 0.21 0.21 84 1014.8
20260902215007 71 146 1.7 7.0 0.00 0.21 0.21 84 1014.8
20260902214508 71 144 0.9 6.1 0.00 0.21 0.21 84 1014.8
20260902214008 71 178 1.7 6.1 0.00 0.21 0.21 83 1014.8
20260902213507 71 192 0.9 6.1 0.00 0.21 0.21 83 1014.8
20260902213007 71 163 1.7 7.0 0.00 0.21 0.21 82 1014.8
20260902212507 71 179 2.6 7.0 0.00 0.21 0.21 82 1014.8
20260902212008 71 162 3.5 10.4 0.00 0.21 0.21 81 1014.9
20260902211508 71 189 7.0 10.4 0.00 0.21 0.21 81 1014.9
20260902211009 72 199 0.9 6.1 0.00 0.21 0.21 82 1014.9
20260902210507 72 180 1.7 6.1 0.00 0.21 0.21 82 1014.9
20260902210006 71 179 2.6 7.8 0.00 0.21 0.21 82 1014.8
20260902205605 72 129 3.5 7.8 0.00 0.21 0.21 82 1014.7
20260902205005 72 207 3.5 7.0 0.00 0.21 0.21 82 1014.9
20260902204505 72 197 1.7 7.0 0.00 0.21 0.21 81 1014.8
20260902204004 72 209 2.6 7.8 0.00 0.21 0.21 82 1014.8
20260902203504 72 166 3.5 8.7 0.00 0.21 0.21 82 1014.9
20260902203004 71 192 2.6 8.7 0.00 0.21 0.21 82 1014.9
20260902202504 71 183 3.5 7.8 0.00 0.21 0.21 82 1014.8
20260902202004 71 120 4.3 8.7 0.00 0.21 0.21 81 1014.7
20260902201502 71 181 4.3 8.7 0.00 0.21 0.21 82 1014.8
20260902201004 71 188 3.5 8.7 0.00 0.21 0.21 82 1014.8
20260902200501 71 199 4.3 8.7 0.00 0.21 0.21 83 1014.9
20260902200113 71 150 2.6 7.0 0.00 0.21 0.21 84 1014.9
20260902195601 70 159 2.6 7.0 0.00 0.21 0.21 85 1015.0
20260902195159 70 169 1.7 6.1 0.00 0.21 0.21 85 1014.9
20260902194601 70 198 2.6 8.7 0.00 0.21 0.21 84 1015.0
20260902194100 70 140 3.5 8.7 0.00 0.21 0.21 83 1015.0
20260902193602 70 157 2.6 7.8 0.00 0.21 0.21 83 1014.9
20260902193058 70 124 3.5 7.8 0.00 0.21 0.21 83 1015.1
20260902192558 70 132 2.6 6.1 0.00 0.21 0.21 83 1015.2
20260902192102 70 152 0.9 4.3 0.00 0.21 0.21 83 1015.3
20260902191557 70 144 0.9 6.1 0.00 0.21 0.21 84 1015.3
20260902191055 70 152 2.6 6.1 0.00 0.21 0.21 84 1015.2
20260902190555 69 192 1.7 6.1 0.00 0.21 0.21 85 1015.2
20260902190056 69 177 1.7 6.1 0.00 0.21 0.21 85 1015.2
20260902185556 69 182 1.7 6.1 0.00 0.21 0.21 86 1015.3
20260902185054 69 204 3.5 7.0 0.00 0.21 0.21 86 1015.3
20260902184559 69 156 0.9 5.2 0.00 0.21 0.21 86 1015.3
20260902184054 69 193 2.6 7.0 0.00 0.21 0.21 86 1015.4
20260902183554 69 190 1.7 7.0 0.00 0.21 0.21 87 1015.5
20260902183054 69 203 0.9 7.8 0.00 0.21 0.21 88 1015.6
20260902182552 70 232 0.9 7.8 0.00 0.21 0.21 90 1015.8
20260902182052 69 209 2.6 7.8 0.00 0.21 0.21 91 1015.8
20260902181550 69 271 0.0 5.2 0.00 0.21 0.21 92 1015.9
20260902181050 69 192 1.7 5.2 0.00 0.21 0.21 93 1016.0
20260902180549 69 241 0.9 6.1 0.00 0.21 0.21 94 1015.7
20260902180108 69 117 0.9 5.2 0.00 0.21 0.21 1015.6
20260902175550 69 150 2.6 13.9 0.00 0.21 0.21 95 1015.3
20260902175048 68 204 5.2 8.7 0.00 0.21 0.21 95 1015.4
20260902174546 68 198 0.9 10.4 0.01 0.21 0.21 95 1015.5
20260902174050 68 203 5.2 10.4 0.02 0.21 0.21 95 1015.8
20260902173545 68 291 0.9 10.4 0.04 0.21 0.21 95 1015.5
20260902173044 68 150 4.3 10.4 0.05 0.21 0.21 95 1015.1
20260902172545 67 178 4.3 7.8 0.06 0.21 0.21 95 1014.9
20260902172043 67 339 1.7 5.2 0.07 0.21 0.21 95 1015.0
20260902171542 67 296 0.9 9.6 0.09 0.21 0.21 95 1015.5
20260902171042 67 297 6.1 9.6 0.10 0.21 0.21 95 1015.2
20260902170541 67 306 6.1 10.4 0.11 0.21 0.21 95 1015.0
20260902170041 66 331 2.6 10.4 0.12 0.21 0.21 95 1014.4
20260902165540 66 209 3.5 9.6 0.13 0.21 0.21 95 1014.2
20260902165038 67 160 2.6 8.7 0.14 0.20 0.20 95 1014.7
20260902164537 66 186 1.7 13.9 0.15 0.20 0.20 95 1015.2
20260902164036 66 199 4.3 13.9 0.16 0.19 0.19 95 1015.3
20260902163536 66 140 0.9 19.1 0.14 0.17 0.17 96 1015.4
20260902163036 66 162 6.1 19.1 0.13 0.15 0.15 96 1015.4
20260902162535 66 207 9.6 20.0 0.13 0.15 0.15 96 1015.5
20260902162036 66 179 9.6 17.4 0.12 0.14 0.14 96 1015.5
20260902161547 67 138 6.1 15.6 0.11 0.12 0.12 96 1015.7
20260902161034 67 203 7.0 15.6 0.10 0.11 0.11 96 1015.9
20260902160533 67 185 7.8 14.8 0.10 0.10 0.10 96 1016.4
20260902160033 67 205 6.1 13.0 0.09 0.09 0.09 96 1016.8
20260902155533 67 198 3.5 7.8 0.07 0.07 0.07 96 1016.8
20260902155033 67 191 0.9 11.3 0.06 0.06 0.06 96 1017.0
20260902154534 67 229 4.3 11.3 0.05 0.05 0.05 96 1016.8
20260902154031 67 194 2.6 8.7 0.03 0.03 0.03 96 1016.8
20260902153531 67 200 1.7 8.7 0.03 0.03 0.03 96 1016.8
20260902153030 66 195 0.0 2.6 0.02 0.02 0.02 96 1016.6
20260902152528 65 111 0.0 1.7 0.02 0.02 0.02 96 1016.5
20260902152030 65 111 0.0 1.7 0.01 0.01 0.01 96 1016.5
20260902151527 65 123 0.0 2.6 0.01 0.01 0.01 96 1016.5
20260902151029 65 123 0.9 4.3 0.01 0.01 0.01 96 1016.5
20260902150526 65 124 0.9 4.3 0.00 0.00 0.00 96 1016.6
20260902150026 65 101 1.7 5.2 0.00 0.00 0.00 96 1016.6
20260902145526 65 96 2.6 5.2 0.00 0.01 0.00 96 1016.6
20260902145026 65 83 2.6 5.2 0.00 0.01 0.00 96 1016.6
20260902144532 65 93 1.7 5.2 0.00 0.01 0.00 96 1016.7
20260902144025 64 115 1.7 3.5 0.00 0.01 0.00 96 1016.8
20260902143526 64 115 1.7 6.1 0.00 0.01 0.00 96 1016.8
20260902143026 64 115 2.6 6.1 0.00 0.01 0.00 96 1016.8
20260902142525 64 101 1.7 5.2 0.00 0.01 0.00 96 1016.9
20260902142025 64 134 1.7 4.3 0.00 0.01 0.00 96 1016.8
20260902141526 64 127 0.9 2.6 0.00 0.01 0.00 96 1016.9
20260902141024 64 96 0.9 2.6 0.00 0.01 0.00 96 1017.0
20260902140522 64 95 1.7 3.5 0.00 0.01 0.00 96 1017.0
20260902140022 64 92 0.9 3.5 0.00 0.01 0.00 96 1016.8
20260902135521 64 103 0.9 3.5 0.00 0.01 0.00 96 1016.6
20260902135021 65 107 1.7 3.5 0.00 0.01 0.00 96 1016.5
20260902134533 65 110 1.7 6.1 0.00 0.01 0.00 96 1016.7
20260902134022 64 121 2.6 6.1 0.00 0.01 0.00 96 1016.7
20260902133520 64 141 3.5 6.1 0.00 0.01 0.00 95 1016.6
20260902133023 64 135 2.6 3.5 0.00 0.01 0.00 96 1016.4
20260902132521 64 113 1.7 3.5 0.00 0.01 0.00 96 1016.4
20260902132020 65 111 0.0 5.2 0.00 0.01 0.00 96 1016.5
20260902131519 64 105 1.7 5.2 0.00 0.01 0.00 96 1016.5
20260902131019 64 103 1.7 5.2 0.00 0.01 0.00 96 1016.5
20260902130522 64 105 0.9 5.2 0.00 0.01 0.00 96 1016.5
20260902130019 64 96 1.7 5.2 0.00 0.01 0.00 96 1016.5
20260902125519 64 92 1.7 5.2 0.00 0.01 0.00 96 1016.7
20260902125022 64 95 0.9 5.2 0.00 0.01 0.00 96 1016.7
20260902124519 64 82 0.9 3.5 0.00 0.01 0.00 96 1016.7
20260902124018 63 94 1.7 5.2 0.00 0.01 0.00 96 1016.6
20260902123518 63 95 1.7 5.2 0.00 0.01 0.00 96 1016.6
20260902123020 63 84 1.7 4.3 0.00 0.01 0.00 96 1016.7
20260902122519 63 84 2.6 4.3 0.00 0.01 0.00 96 1016.6
20260902122016 63 55 2.6 6.1 0.00 0.01 0.00 96 1016.5
20260902121516 63 84 2.6 6.1 0.00 0.01 0.00 96 1016.4
20260902121017 62 76 2.6 4.3 0.00 0.01 0.00 96 1016.4
20260902120516 62 87 1.7 6.1 0.00 0.01 0.00 96 1016.4
20260902120016 62 71 3.5 6.1 0.00 0.01 0.00 96 1016.5
20260902115521 62 92 2.6 6.1 0.00 0.01 0.00 96 1016.3
20260902115015 62 86 3.5 7.0 0.00 0.01 0.00 96 1016.2
20260902114516 62 81 2.6 7.0 0.00 0.01 0.00 95 1016.3
20260902114115 62 98 4.3 7.0 0.00 0.01 0.00 95 1016.3
20260902113515 62 131 3.5 7.8 0.00 0.01 0.00 95 1016.0